Location: Nelson
(41.2830°S, 173.2830°E)
Time: 07:51:03
(UTC+12:00)

ISS - Pass Details

Date: 22 May 2025
Orbit: 415 x 416 km, 51.6° (Epoch: 16 June)

Event Time Altitude Azimuth Distance (km) Brightness Sun altitude
Exits shadow 05:51:37 24° 180° (S) 930 -2.2 -19.1°
Drops below altitude 10° 05:53:52 10° 143° (SE) 1,531 -0.6 -18.7°
Sets 05:56:13 0° 129° (SE) 2,401 0.7 -18.3°
